Current Version              Previous Version:    01  02  03  04  05  06  07  08  09  10  11  12  13  14  15  16  17  18  19  20  21  22  23  24  25  26  27  28  29  30  
   31  32  33  34  35  36  37  38  39  40  41  42  43  44  45  46  47  48  49  50  51  52  53  54  55  56  57  58  59  60  

[Printable]
619
ASUS44 KFWD 290203
RWRTX
NORTH TEXAS HOURLY WEATHER ROUNDUP
NATIONAL WEATHER SERVICE FORT WORTH TX
800 PM CST FRI NOV 28 2014

NOTE: "FAIR" INDICATES FEW OR NO CLOUDS BELOW 12,000 FEET WITH NO
SIGNIFICANT WEATHER AND/OR OBSTRUCTIONS TO VISIBILITY.

TXZ118-119-290300-
DALLAS/FORT WORTH METROPLEX

CITY           SKY/WX    TMP DP  RH WIND       PRES   REMARKS
DFW AIRPORT    PTCLDY    62  48  60 S16       30.00F
DALLAS LOVE    CLEAR     64  49  57 S13G22    30.02S
FTW MEACHAM    CLEAR     63  48  58 S14       30.00S
DAL-EXECUTIVE  CLEAR     64  49  57 S9        30.02S
FTW-ALLIANCE   PTCLDY    61  47  59 S13       29.99S
FTW-SPINKS     CLEAR     64  47  55 S13       30.03F
ARLINGTON      CLEAR     63  47  55 S12       30.02S
GRAND PRAIRIE  CLEAR     63  50  63 S13       30.03F
ADDISON        CLEAR     64  48  55 S14G23    30.02
MESQUITE       CLEAR     63  48  59 S16       30.03F
LANCASTER      CLEAR     61  47  60 S12       30.04F
$$

TXZ091>094-102>105-117-120-121-131>134-290300-
NORTH CENTRAL TEXAS

CITY           SKY/WX    TMP DP  RH WIND       PRES   REMARKS
SHRMAN/DENISON CLEAR     60  52  74 S14       29.98F
BRIDGEPORT     CLEAR     61  49  63 S9        29.99S
DECATUR        CLEAR     62  46  56 S15G24    29.98S
DENTON         CLEAR     61  48  62 S13       29.99S
MCKINNEY       CLEAR     62  49  62 S14       30.00F
GREENVILLE     CLEAR     55  48  76 S8        30.03F
ROCKWALL       CLEAR     62  50  66 S20       30.02S
TERRELL        CLEAR     62  50  64 S10       30.04F
WAXAHACHIE     CLEAR     61  51  70 S15       30.05S
CLEBURNE       CLEAR     59  48  67 S10       30.05S
GRANBURY       CLEAR     63  47  57 SE7       30.03F
$$

TXZ083>090-098>101-113>116-127>130-139>142-154-155-290300-
WESTERN NORTH TEXAS

CITY           SKY/WX    TMP DP  RH WIND       PRES   REMARKS
WICHITA FALLS  CLEAR     61  45  55 S16       29.90F
WF-KICKAPOO    CLEAR     56  45  64 S12       29.92F
VERNON         CLEAR     63  41  45 S20       29.88S
ABILENE        CLEAR     63  38  39 S15G22    30.01R
ABILENE-DYESS  CLEAR     62  40  44 SW12      29.99S
MINERAL WELLS  CLEAR     59  46  62 S10       29.99S
STEPHENVILLE   CLEAR     60  46  61 S9        30.05F
COMANCHE       CLEAR     58  46  63 S10       30.04S
COLEMAN        CLEAR     57  43  59 SW6       30.04S
BRADY          CLEAR     57  39  51 S7        30.07S
$$

TXZ143>147-156>162-174-175-290300-
CENTRAL TEXAS

CITY           SKY/WX    TMP DP  RH WIND       PRES   REMARKS
WACO           CLEAR     61  47  59 S10       30.07S
WACO-TSTC      CLEAR     59  46  63 S10       30.07F
WACO-MCGREGOR  CLEAR     61  43  51 S10       30.09R
CORSICANA      CLEAR     58  50  75 S9        30.08S
MEXIA          CLEAR     58  51  77 S7        30.07F
HEARNE         CLEAR     58  51  77 SE5       30.12S
CAMERON        CLEAR     61  48  63 S6        30.10S
TEMPLE         CLEAR     54  43  66 S7        30.08S
KILLEEN        CLEAR     57  47  69 S8        30.08S
KILLEEN-SKYLRK CLEAR     55  43  62 S7        30.07F
FORT HOOD      CLEAR     61  47  59 S7        30.08F
GATESVILLE     CLEAR     59  46  63 CALM      30.09S
HAMILTON       CLEAR     58  45  60 S10G21    30.07S
LAMPASAS       CLEAR     56  47  72 S3        30.07S
$$

TXZ095>097-106>112-122>126-135>138-148>153-164>167-290300-
EAST TEXAS

CITY           SKY/WX    TMP DP  RH WIND       PRES   REMARKS
PARIS          CLEAR     55  46  71 S10       30.03F
SULPHUR SPRNGS CLEAR     61  49  64 S8        30.05F
MOUNT PLEASANT CLEAR     58  49  71 S8        30.07F
MINEOLA        CLEAR     61  52  72 CALM      30.07S
TYLER          CLEAR     59  50  72 S13       30.07F
LONGVIEW       PTCLDY    59  50  72 S10       30.09S
MARSHALL       CLEAR     58  51  76 S7        30.12S
ATHENS         CLEAR     59  50  72 S7        30.07S
PALESTINE      CLEAR     60  54  79 SE6       30.10F
JACKSONVILLE   CLEAR     59  53  79 S12       30.12S
HENDERSON      PTCLDY    58  51  76 S7        30.11S
NACOGDOCHES    CLEAR     57  52  82 S7        30.13F
LUFKIN         CLEAR     60  52  74 S8        30.14S
$$

SUPPLEMENTAL OBSERVATIONS (CENTRAL)

CITY           SKY/WX    TMP DP  RH WIND       PRES   REMARKS
$$

SUPPLEMENTAL OBSERVATIONS (WEST)

CITY           SKY/WX    TMP DP  RH WIND       PRES   REMARKS
$$

SUPPLEMENTAL OBSERVATIONS (EAST)

CITY           SKY/WX    TMP DP  RH WIND       PRES   REMARKS
$$

SUPPLEMENTAL OBSERVATIONS ARE A COLLECTION OF AUTOMATED INSTRUMENTS
THAT ARE MAINTAINED BY A VARIETY OF FEDERAL AND STATE AGENCIES.
CERTAIN ELEMENTS...SUCH AS HUMIDITY VALUES AND SUSTAINED WIND
SPEEDS...MAY BE APPROXIMATED.